Hourly Data Report for December 14, 2006

TORONTO CITY
ONTARIO

43°40'00.000" N
79°24'00.000" W
112.50 m
6158355
71508
XTO

Download Data

Hourly Data (December 2006)
Hourly Data Report for December 14, 2006
TIME
LST
Temp Definition
°C
Dew Point Definition
°C
Rel Hum Definition
%
Precip. Amount Definition
mm

Wind Dir Definition
10's deg

Wind Spd Definition
km/h
Visibility Definition
km
Stn Press Definition
kPa
Hmdx Definition


Wind Chill Definition


Weather Definition


00:00 3.2 0.4 82   LegendMM LegendMM   99.96     LegendNANA
01:00 3.0 0.5 84   LegendMM LegendMM   99.93     LegendNANA
02:00 3.3 1.2 86   LegendMM LegendMM   99.90     LegendNANA
03:00 4.0 2.1 87   LegendMM LegendMM   99.89     LegendNANA
04:00 4.7 3.2 90   LegendMM LegendMM   99.84     LegendNANA
05:00 4.9 3.9 93   LegendMM LegendMM   99.83     LegendNANA
06:00 5.0 4.1 94   LegendMM LegendMM   99.84     LegendNANA
07:00 5.3 4.6 95   LegendMM LegendMM   99.82     LegendNANA
08:00 5.4 4.5 94   LegendMM LegendMM   99.84     LegendNANA
09:00 5.8 4.7 93   LegendMM LegendMM   99.84     LegendNANA
10:00 6.6 4.8 88   LegendMM LegendMM   99.82     LegendNANA
11:00 6.7 4.9 88   LegendMM LegendMM   99.70     LegendNANA
12:00 7.7 5.3 85   LegendMM LegendMM   99.61     LegendNANA
13:00 8.0 5.1 82   LegendMM LegendMM   99.49     LegendNANA
14:00 8.2 5.3 82   LegendMM LegendMM   99.42     LegendNANA
15:00 8.7 5.2 79   LegendMM LegendMM   99.32     LegendNANA
16:00 9.0 5.1 77   LegendMM LegendMM   99.31     LegendNANA
17:00 8.8 5.2 78   LegendMM LegendMM   99.27     LegendNANA
18:00 8.7 5.0 78   LegendMM LegendMM   99.23     LegendNANA
19:00 9.2 4.8 74   LegendMM LegendMM   99.14     LegendNANA
20:00 9.2 4.9 74   LegendMM LegendMM   99.04     LegendNANA
21:00 8.7 4.9 77   LegendMM LegendMM   99.00     LegendNANA
22:00 10.2 4.7 69   LegendMM LegendMM   98.96     LegendNANA
23:00 10.5 4.5 66   LegendMM LegendMM   98.88     LegendNANA

Notes on Data Quality.

Legend

  • E = Estimated
  • M = Missing
  • NA = Not Available*
  • [empty] = Indicates an unobserved value
Date modified: